Content
SEND FEEDBACK

Daily
Averages
Monthly
Summary
Germany

LUBECK, GERMANY


Home > Europe > Germany
Elevation: 56 feet     Latitude: 54 00N     Longitude: 011 12E

WEATHER
 
SELECT A DAY
Number of Records: 58,336;   Date Range: 7/3/96 - 7/27/14
 
SHARE

PRINT THIS DATA

[ ← Previous Day ]
WEATHER ALMANAC - JULY 3, 2013
[ Next Day → ]
[ °C ]   °F
Weather ElementAverageHighLow
Temperature69.7 °F77 °F (1:50 pm)60.8 °F (6:50 am)
Dewpoint60.2 °F64.4 °F (8:20 pm)53.6 °F (6:50 am)
Humidity72.6 %88 % (8:50 am)57 % (1:50 pm)
Barometer29.79 in29.86 in (9:50 pm)29.77 in (10:20 am)
Wind Speed5.5 mph9.2 mph (12:50 pm)
Weather ElementAverage
Visibility6.2 mi
Wind DirectionSSE (147.9 °)

Weather ElementTotal
Precipitation---
Cooling Degree Days3.9 (Base 65)
Growing Degree Days18.9 (Base 50)
Averaged from 28 records on July 3, 2013
WEATHER CONDITIONS BREAKOUT
WIND DIRECTION BREAKOUT
WEATHER BY HOUR - JULY 3, 2013
[ °C ]   °F
Local TimeTemperatureDewpointHumidityBarometerVisibilityWind DirectionWind SpeedGust SpeedPrecipitationEventsConditions
6:50 AM60.8 °F53.6 °F77 %29.80 inESE (110°)6.9 mphClear
7:20 AM60.8 °F55.4 °F82 %29.80 inESE (120°)6.9 mphClear
7:50 AM60.8 °F55.4 °F82 %29.83 inSE (140°)4.6 mphClear
8:20 AM62.6 °F55.4 °F77 %29.80 in6.2 miSouth (170°)3.5 mphRainLight Rain
8:50 AM60.8 °F57.2 °F88 %29.80 in6.2 miSSE (150°)5.8 mphRainLight Rain
9:20 AM60.8 °F57.2 °F88 %29.80 in6.2 miSE (140°)3.5 mphRainLight Rain
9:50 AM62.6 °F59.0 °F88 %29.80 in6.2 miSE (140°)4.6 mphMostly Cloudy
10:20 AM62.6 °F57.2 °F82 %29.77 in6.2 miSE (130°)5.8 mphMostly Cloudy
10:50 AM64.4 °F59.0 °F83 %29.77 inSE (130°)5.8 mphClear
11:20 AM68.0 °F60.8 °F78 %29.77 inSE (130°)4.6 mphClear
11:50 AM68.0 °F59.0 °F73 %29.77 inSE (130°)8.1 mphClear
12:20 PM71.6 °F60.8 °F69 %29.77 inSE (140°)6.9 mphClear
12:50 PM73.4 °F60.8 °F65 %29.77 inSE (140°)9.2 mphClear
1:20 PM75.2 °F60.8 °F61 %29.77 inSSE (160°)5.8 mphClear
1:50 PM77.0 °F60.8 °F57 %29.77 in6.2 miVariable4.6 mphScattered Clouds
2:20 PM77.0 °F62.6 °F61 %29.77 inSouth (180°)8.1 mphClear
2:50 PM75.2 °F60.8 °F61 %29.77 in6.2 miSouth (180°)8.1 mphScattered Clouds
3:20 PM75.2 °F60.8 °F61 %29.77 in6.2 miSSE (160°)6.9 mphScattered Clouds
3:50 PM77.0 °F62.6 °F61 %29.77 in6.2 miSSE (150°)5.8 mphScattered Clouds
4:50 PM77.0 °F62.6 °F61 %29.77 in6.2 miSouth (170°)5.8 mphMostly Cloudy
5:20 PM75.2 °F62.6 °F65 %29.80 in6.2 miSE (140°)5.8 mphMostly Cloudy
5:50 PM75.2 °F62.6 °F65 %29.77 in6.2 miSE (130°)5.8 mphMostly Cloudy
6:20 PM75.2 °F62.6 °F65 %29.80 in6.2 miSSE (150°)4.6 mphMostly Cloudy
7:20 PM73.4 °F62.6 °F69 %29.80 in6.2 miSSE (150°)2.3 mphMostly Cloudy
7:50 PM73.4 °F62.6 °F69 %29.80 inWSW (240°)4.6 mphClear
8:20 PM71.6 °F64.4 °F78 %29.83 inWest (280°)3.5 mphClear
8:50 PM69.8 °F62.6 °F78 %29.83 inWest (280°)4.6 mphClear
9:50 PM68.0 °F64.4 °F88 %29.86 inVariable2.3 mphClear
Hourly data recorded from EDHL, located miles away from Lubeck, Germany







STORIES FROM OUR PARTNERS